Location: Street
(51.1247°N, 2.7429°W)
Time: 09:38:08
(UTC+01:00)

UWE-3 - Visible Passes

Search period start: 01 April 2023 00:00
Search period end: 11 April 2023 00:00
Orbit: 579 x 670 km, 97.7° (Epoch: 31 March)

Date Brightness Start Highest point End Pass type
(mag) Time Alt. Az. Time Alt. Az. Time Alt. Az.
01 Apr ? 04:10:35 10° NNE 04:15:05 70° ESE 04:16:09 49° SSE visible
01 Apr ? 05:47:46 10° NNW 05:50:48 18° WNW 05:53:25 11° W visible
02 Apr ? 02:54:36 10° NE 02:56:57 14° E 02:57:54 13° E visible
02 Apr ? 04:29:18 10° NNE 04:33:48 79° WNW 04:35:10 44° SSW visible
02 Apr ? 06:07:12 10° NNW 06:09:14 13° NW 06:11:16 10° W visible
03 Apr ? 03:12:34 10° NE 03:15:53 20° E 03:16:54 19° ESE visible
03 Apr ? 04:48:06 10° N 04:52:27 53° WNW 04:54:10 32° SW visible
04 Apr ? 03:30:51 10° NNE 03:34:44 29° E 03:35:54 26° ESE visible
04 Apr ? 05:06:57 10° N 05:11:02 36° WNW 05:13:09 22° WSW visible
05 Apr ? 03:49:18 10° NNE 03:53:32 43° E 03:54:52 33° SE visible
05 Apr ? 05:25:54 10° N 05:29:33 26° WNW 05:32:08 15° WSW visible
06 Apr ? 04:07:51 10° NNE 04:12:16 66° ESE 04:13:50 37° S visible
06 Apr ? 05:44:58 10° NNW 05:48:00 18° WNW 05:50:59 10° WSW visible
07 Apr ? 02:52:01 10° ENE 02:54:02 13° E 02:55:31 11° ESE visible
07 Apr ? 04:26:30 10° NNE 04:30:56 83° WNW 04:32:47 34° SSW visible
08 Apr ? 03:09:47 10° NE 03:12:55 19° E 03:14:27 16° ESE visible
08 Apr ? 04:45:13 10° N 04:49:31 55° WNW 04:51:43 26° SW visible
09 Apr ? 03:27:58 10° NE 03:31:43 27° E 03:33:23 21° SE visible
09 Apr ? 05:04:00 10° N 05:08:03 37° WNW 05:10:38 19° SW visible
10 Apr ? 03:46:21 10° NNE 03:50:27 41° E 03:52:17 26° SSE visible
10 Apr ? 05:22:53 10° N 05:26:31 26° WNW 05:29:33 13° WSW visible
